Bainbridge, GA

9:29 AM EST on February 25, 2017 (GMT -0500)
Decatur County Industrial

Weather History for KBGE - February, 2013

Change the Weather History Date:

Tuesday, February 19, 2013

  Actual Average (KABY) Record (KABY)
Temperature  
Mean Temperature 54 °F -  
Max Temperature 66 °F 63 °F 82 °F (2011)
Min Temperature 41 °F 41 °F 19 °F (1958)
Degree Days  
Heating Degree Days 12    
Growing Degree Days 4 (Base 50)    
Moisture  
Dew Point 48 °F    
Average Humidity 79    
Maximum Humidity 94    
Minimum Humidity 50    
Precipitation  
Precipitation 0.00 in - - ()
Sea Level Pressure  
Sea Level Pressure 30.10 in    
Wind  
Wind Speed 7 mph (SW)    
Max Wind Speed 17 mph    
Max Gust Speed 23 mph    
Visibility 10 miles    
Events Rain    
Averages and records for this station are not official NWS values.
T = Trace of Precipitation, MM = Missing Value Source: NWS Daily Summary

Daily Weather History Graph

Daily Weather History Graph

Search for Another Location

Airport or City:

Trip Planner

Search our weather history database for the weather conditions in past years. The results will help you decide how hot, cold, wet, or windy it might be!

Date:

Astronomy

Feb. 19, 2013 Rise Set
Actual Time 7:15 AM EST 6:29 PM EST
Civil Twilight 6:50 AM EST 6:54 PM EST
Nautical Twilight 6:22 AM EST 7:22 PM EST
Astronomical Twilight 5:54 AM EST 7:50 PM EST
Moon 1:12 PM EST (2/19) 2:34 AM EST (2/19)
Length of Visible Light 12h 03m
Length of Day
11h 14m
Waxing Gibbous, 67% of the Moon is Illuminated
Feb 19
Waxing Gibbous
Feb 25
Full
Mar 4
Last Quarter
Mar 11
New
Mar 19
First Quarter

Hourly Weather History & Observations

Time (EST) Temp. Windchill Dew Point Humidity Pressure Visibility Wind Dir Wind Speed Gust Speed Precip Events Conditions
12:15 AM 42.8 °F 40.1 °F 32.0 °F 66% 30.20 in 10.0 mi SSE 4.6 mph - N/A   Clear
12:35 AM 42.8 °F - 32.0 °F 66% 30.19 in 10.0 mi Calm Calm - N/A   Clear
12:55 AM 42.8 °F - 33.8 °F 70% 30.18 in 10.0 mi Calm Calm - N/A   Clear
1:15 AM 41.0 °F 37.1 °F 33.8 °F 76% 30.17 in 10.0 mi SE 5.8 mph - N/A   Clear
1:55 AM 41.0 °F 36.4 °F 33.8 °F 76% 30.16 in 10.0 mi SE 6.9 mph - N/A   Clear
2:15 AM 41.0 °F 36.4 °F 33.8 °F 76% 30.15 in 10.0 mi SE 6.9 mph - N/A   Clear
2:55 AM 44.6 °F 40.7 °F 35.6 °F 71% 30.12 in 10.0 mi SE 6.9 mph - N/A   Clear
3:15 AM 42.8 °F 40.1 °F 35.6 °F 76% 30.11 in 10.0 mi SE 4.6 mph - N/A   Clear
3:35 AM 42.8 °F 40.1 °F 35.6 °F 76% 30.11 in 10.0 mi SE 4.6 mph - N/A   Clear
3:55 AM 42.8 °F 40.1 °F 37.4 °F 81% 30.10 in 10.0 mi SE 4.6 mph - N/A   Clear
4:15 AM 42.8 °F 41.1 °F 37.4 °F 81% 30.11 in 10.0 mi SE 3.5 mph - N/A   Clear
4:35 AM 42.8 °F - 37.4 °F 81% 30.10 in 10.0 mi Calm Calm - N/A   Clear
4:55 AM 42.8 °F - 37.4 °F 81% 30.09 in 10.0 mi Calm Calm - N/A   Scattered Clouds
5:15 AM 42.8 °F 40.1 °F 39.2 °F 87% 30.09 in 10.0 mi SSE 4.6 mph - N/A   Scattered Clouds
5:35 AM 44.6 °F 42.2 °F 41.0 °F 87% 30.09 in 10.0 mi SSE 4.6 mph - N/A   Scattered Clouds
5:55 AM 46.4 °F 42.9 °F 44.6 °F 93% 30.08 in 10.0 mi SSE 6.9 mph - N/A   Scattered Clouds
6:15 AM 50.0 °F - 44.6 °F 82% 30.08 in 10.0 mi SSE 8.1 mph - N/A   Scattered Clouds
6:35 AM 50.0 °F - 44.6 °F 82% 30.08 in 10.0 mi SSE 9.2 mph - N/A   Clear
6:55 AM 51.8 °F - 46.4 °F 82% 30.08 in 10.0 mi South 10.4 mph - N/A   Clear
7:15 AM 51.8 °F - 46.4 °F 82% 30.08 in 10.0 mi South 10.4 mph - N/A   Scattered Clouds
7:35 AM 51.8 °F - 46.4 °F 82% 30.08 in 10.0 mi South 10.4 mph - N/A   Clear
7:55 AM 55.4 °F - 50.0 °F 82% 30.09 in 10.0 mi South 10.4 mph 17.3 mph N/A   Clear
8:15 AM 57.2 °F - 50.0 °F 77% 30.08 in 10.0 mi South 11.5 mph - N/A   Scattered Clouds
8:35 AM 57.2 °F - 51.8 °F 82% 30.08 in 10.0 mi South 12.7 mph 19.6 mph N/A   Scattered Clouds
8:55 AM 59.0 °F - 51.8 °F 77% 30.07 in 10.0 mi South 16.1 mph - N/A   Scattered Clouds
9:15 AM 60.8 °F - 53.6 °F 77% 30.08 in 10.0 mi South 17.3 mph 23.0 mph N/A   Clear
9:35 AM 59.0 °F - 53.6 °F 82% 30.08 in 10.0 mi South 15.0 mph 23.0 mph N/A Rain Light Rain
10:15 AM 59.0 °F - 57.2 °F 94% 30.08 in 10.0 mi South 8.1 mph - N/A Rain Light Rain
10:35 AM 62.6 °F - 59.0 °F 88% 30.08 in 10.0 mi SSW 13.8 mph 21.9 mph N/A   Light Drizzle
10:55 AM 62.6 °F - 59.0 °F 88% 30.08 in 10.0 mi SSW 12.7 mph 21.9 mph N/A   Mostly Cloudy
11:15 AM 62.6 °F - 59.0 °F 88% 30.08 in 7.0 mi SSW 13.8 mph 23.0 mph N/A Rain Light Rain
11:35 AM 62.6 °F - 59.0 °F 88% 30.08 in 5.0 mi SSW 12.7 mph - N/A   Drizzle
11:55 AM 62.6 °F - 60.8 °F 94% 30.07 in 4.0 mi SSW 9.2 mph - N/A Rain Light Rain
12:15 PM 62.6 °F - 60.8 °F 94% 30.07 in 10.0 mi SSW 8.1 mph - N/A   Mostly Cloudy
12:35 PM 62.6 °F - 60.8 °F 94% 30.08 in 2.5 mi West 9.2 mph 18.4 mph N/A Rain Light Rain
12:55 PM 62.6 °F - 60.8 °F 94% 30.07 in 10.0 mi SW 9.2 mph - N/A   Overcast
1:15 PM 62.6 °F - 60.8 °F 94% 30.06 in 10.0 mi SW 9.2 mph - N/A   Overcast
1:35 PM 62.6 °F - 60.8 °F 94% 30.06 in 10.0 mi WSW 9.2 mph - N/A   Overcast
1:55 PM 64.4 °F - 62.6 °F 94% 30.05 in 10.0 mi West 6.9 mph - N/A   Overcast
2:15 PM 60.8 °F - 59.0 °F 94% 30.05 in 10.0 mi NNW 9.2 mph - N/A   Overcast
2:35 PM 62.6 °F - 59.0 °F 88% 30.05 in 10.0 mi NW 11.5 mph - N/A   Overcast
2:55 PM 62.6 °F - 59.0 °F 88% 30.05 in 10.0 mi NNW 9.2 mph - N/A   Overcast
3:15 PM 64.4 °F - 59.0 °F 83% 30.05 in 10.0 mi NW 5.8 mph - N/A   Overcast
3:35 PM 64.4 °F - 59.0 °F 83% 30.05 in 10.0 mi NW 9.2 mph - N/A   Overcast
3:55 PM 64.4 °F - 57.2 °F 77% 30.05 in 10.0 mi NNW 11.5 mph 16.1 mph N/A   Overcast
4:15 PM 64.4 °F - 55.4 °F 73% 30.06 in 10.0 mi NW 10.4 mph - N/A   Overcast
4:35 PM 64.4 °F - 55.4 °F 73% 30.06 in 10.0 mi NW 9.2 mph - N/A   Mostly Cloudy
4:55 PM 66.2 °F - 55.4 °F 68% 30.06 in 10.0 mi NNW 10.4 mph - N/A   Mostly Cloudy
5:15 PM 64.4 °F - 53.6 °F 68% 30.07 in 10.0 mi NW 15.0 mph - N/A   Mostly Cloudy
5:35 PM 64.4 °F - 51.8 °F 64% 30.08 in 10.0 mi NW 11.5 mph - N/A   Clear
6:15 PM 62.6 °F - 50.0 °F 63% 30.09 in 10.0 mi WNW 4.6 mph - N/A   Clear
6:35 PM 59.0 °F - 50.0 °F 72% 30.10 in 10.0 mi West 4.6 mph - N/A   Clear
7:35 PM 53.6 °F - 50.0 °F 88% 30.11 in 10.0 mi Calm Calm - N/A   Clear
7:55 PM 53.6 °F - 51.8 °F 94% 30.11 in 10.0 mi Calm Calm - N/A   Clear
8:35 PM 51.8 °F - 50.0 °F 94% 30.12 in 10.0 mi Calm Calm - N/A   Clear
8:55 PM 50.0 °F - 48.2 °F 94% 30.12 in 10.0 mi Calm Calm - N/A   Clear
9:15 PM 50.0 °F - 46.4 °F 87% 30.13 in 10.0 mi NNW 6.9 mph - N/A   Clear
9:35 PM 51.8 °F - 44.6 °F 76% 30.14 in 10.0 mi NW 8.1 mph - N/A   Clear
9:55 PM 53.6 °F - 42.8 °F 67% 30.14 in 10.0 mi NNW 6.9 mph - N/A   Clear
10:15 PM 53.6 °F - 39.2 °F 58% 30.15 in 10.0 mi NNW 9.2 mph - N/A   Clear
10:35 PM 53.6 °F - 35.6 °F 51% 30.15 in 10.0 mi NNW 6.9 mph - N/A   Clear
10:55 PM 51.8 °F - 33.8 °F 50% 30.16 in 10.0 mi NNW 6.9 mph - N/A   Clear
11:15 PM 51.8 °F - 33.8 °F 50% 30.16 in 10.0 mi NNW 9.2 mph - N/A   Clear
11:35 PM 51.8 °F - 33.8 °F 50% 30.16 in 10.0 mi NNW 6.9 mph - N/A   Clear
11:55 PM 51.8 °F - 33.8 °F 50% 30.16 in 10.0 mi NNW 8.1 mph - N/A   Clear